Wind_Speed
5 5 5 5 6 6 7 8 8 9 9 9 9 9 9 10 11 11 12 12 13 13 14 15 15 16 16 16 16 16 16 16 17 17 17 18 18 18 18 18 18 18 18
6 6 7 7 7 7 8 8 9 9 10 10 11 11 11 11 12 13 13 13 13 13 14 15 15 15 16 15 15 16 16 17 17 18 18 19 18 18 18 18 18 18 18
7 8 8 9 9 9 9 9 10 11 11 11 12 12 12 12 12 13 14 15 15 15 15 15 15 14 14 15 15 16 17 17 18 19 19 19 19 19 18 18 18 18 18
8 9 10 10 11 11 11 11 11 12 12 13 13 13 13 13 13 14 14 15 15 16 16 16 16 15 15 15 16 16 17 18 18 19 19 19 19 19 19 19 19 18 18
10 11 11 11 12 13 13 13 13 13 13 14 14 14 14 14 14 14 15 15 15 16 16 16 17 16 15 16 16 17 17 18 18 19 19 19 20 20 20 20 20 20 19
11 11 12 12 13 13 13 14 14 14 14 15 16 16 16 16 16 16 15 16 16 16 16 16 17 16 16 17 17 17 18 18 18 19 19 19 19 20 20 20 20 20 20
12 12 13 13 13 13 13 13 14 14 14 15 16 16 17 17 17 17 16 16 16 16 16 17 17 17 17 18 17 17 17 18 18 19 19 20 20 20 20 20 20 19 20
14 14 13 13 13 13 13 14 14 15 15 15 16 16 16 17 17 17 17 17 17 17 17 18 18 17 17 17 18 18 17 17 18 18 19 20 20 20 20 20 20 20 20
14 14 14 14 14 14 14 14 14 15 15 15 16 16 16 17 17 17 17 17 17 17 17 18 18 18 17 18 18 17 18 18 18 18 19 19 20 20 20 20 21 21 21
14 14 14 15 14 14 14 14 14 15 15 16 16 17 17 17 18 18 18 18 18 18 18 18 18 18 18 18 18 19 18 18 18 19 19 19 20 20 20 21 21 21 21
14 14 14 14 13 13 13 14 14 14 15 15 16 16 17 17 18 18 18 18 19 19 19 19 19 18 18 18 19 19 19 19 19 20 20 19 20 20 21 21 21 21 21
14 14 13 13 13 13 13 14 14 14 14 15 15 16 16 17 18 19 19 19 19 19 19 19 19 19 19 19 19 19 20 20 20 20 20 20 20 21 21 21 21 21 21
14 14 14 14 14 14 14 14 14 15 15 15 16 16 16 17 18 19 19 20 20 20 20 20 20 20 20 19 20 20 21 21 21 21 21 21 21 21 21 21 21 21 21
14 14 14 14 15 14 15 15 15 15 15 15 16 16 17 17 18 18 19 19 20 21 21 21 21 21 21 21 21 21 22 22 22 22 22 22 22 22 21 21 21 21 21
14 14 14 14 14 14 15 15 15 16 16 16 16 17 18 18 19 19 19 19 20 21 22 22 22 22 22 22 22 22 22 22 22 22 22 22 22 23 23 23 23 22 22
15 15 15 15 15 15 15 15 15 16 16 17 17 18 19 20 20 20 20 21 21 22 22 22 23 23 23 23 23 23 23 23 23 23 23 23 23 23 23 23 23 23 23
15 16 15 16 15 16 16 16 16 17 17 18 19 19 19 19 20 21 21 22 22 22 23 23 23 24 23 23 23 23 23 23 23 23 23 23 23 23 24 24 24 24 24
16 16 16 16 17 17 18 18 18 19 19 18 19 20 20 20 21 21 22 22 23 23 23 23 23 23 24 24 24 24 24 24 24 24 24 24 24 24 24 24 25 25 25
17 17 17 17 18 18 19 19 19 19 19 20 20 20 21 22 22 23 23 24 24 24 24 24 24 24 24 24 25 25 25 25 25 25 25 24 25 25 25 26 26 26 26
17 17 18 18 18 18 19 19 19 20 21 21 21 22 22 22 23 24 24 25 25 25 25 25 25 25 24 25 25 26 26 26 26 25 25 25 26 26 26 26 27 26 26
18 18 18 18 18 19 19 20 20 21 21 22 23 23 23 23 24 24 25 25 25 25 25 25 25 25 25 25 26 26 26 26 26 26 26 27 27 27 27 27 28 28 28
19 19 19 19 20 20 20 21 21 22 22 22 23 24 24 24 24 24 24 24 25 25 25 26 26 26 26 26 26 26 26 26 27 27 28 28 28 28 27 27 28 29 29
21 21 21 21 21 21 22 22 22 23 23 23 24 24 24 24 24 24 24 25 26 26 26 27 27 27 27 27 27 27 27 27 27 29 29 30 30 29 29 29 29 29 29
22 22 22 22 22 22 23 23 23 24 24 24 23 23 23 23 24 24 24 25 25 26 26 27 27 27 27 27 27 27 27 28 28 29 30 30 31 31 31 30 30 30 30
23 23 23 23 23 23 23 24 24 25 25 24 24 23 23 24 24 24 24 25 25 26 26 27 26 27 27 27 27 28 28 29 29 29 30 31 31 31 32 32 31 32 32
24 24 24 25 24 24 24 25 25 25 25 24 24 24 24 24 24 25 25 25 26 27 27 27 27 28 28 29 29 29 29 30 30 31 31 32 32 32 32 33 33 32 33
Wind_Direction
257 260 263 265 262 261 260 260 259 259 258 256 254 255 258 256 253 253 253 256 258 259 259 258 260 258 256 255 256 257 255 256 256 255 257 259 260 262 266 268 268 266 264
267 268 270 272 270 265 263 261 260 260 260 259 258 259 261 256 255 259 261 263 263 262 263 262 265 265 265 258 257 257 257 258 259 260 260 261 261 263 264 266 267 268 267
269 270 272 274 274 272 270 265 261 259 260 259 260 260 260 259 259 261 264 265 266 267 267 269 268 267 265 264 262 260 259 261 263 263 261 261 262 263 263 265 268 269 267
268 271 273 274 274 273 271 268 266 264 261 259 260 261 260 261 262 262 265 266 265 266 265 267 265 267 267 266 262 263 263 264 264 263 262 262 262 264 265 265 268 267 267
274 275 276 276 275 273 271 270 268 266 264 261 261 262 263 263 264 264 266 267 267 267 267 266 266 267 268 268 266 267 268 267 265 264 264 264 264 265 266 265 266 265 265
280 279 280 280 278 276 274 273 270 266 263 262 262 263 263 264 266 266 266 267 267 267 267 266 265 265 266 267 267 268 269 269 267 265 264 266 268 268 267 266 266 265 264
283 283 283 281 280 279 277 275 274 270 265 263 263 263 263 262 264 265 265 267 267 268 267 265 265 265 265 266 268 269 270 271 269 266 265 267 268 269 268 267 265 266 265
284 285 283 281 280 278 277 275 275 272 269 267 264 264 263 262 262 263 265 266 268 269 268 266 266 266 266 266 269 269 271 271 270 269 268 268 268 267 267 266 267 267 268
284 284 283 281 280 278 276 274 274 273 271 269 267 266 264 262 261 262 263 264 265 267 268 269 266 265 265 267 269 269 270 271 271 270 270 269 268 267 267 267 267 268 268
284 283 282 283 281 278 277 277 276 274 272 270 268 267 267 265 263 263 263 263 263 265 267 268 267 266 266 267 268 269 269 271 271 271 271 270 269 269 268 268 268 267 267
285 283 283 281 278 278 279 280 279 277 275 272 268 267 267 267 266 265 264 264 264 264 266 268 269 268 266 267 267 269 270 270 273 272 271 270 271 272 271 269 268 268 268
283 282 281 281 280 280 280 280 278 277 276 274 271 269 268 268 268 266 264 264 266 267 266 266 268 267 267 268 267 268 269 269 271 271 272 271 271 272 271 268 268 269 269
283 280 279 280 281 281 280 279 278 279 278 275 273 271 271 272 272 271 269 266 266 268 268 267 267 267 269 269 269 268 268 268 269 270 271 271 270 270 270 269 269 270 269
284 283 281 281 282 282 281 280 279 279 279 277 274 272 274 275 275 275 273 270 269 269 269 268 267 268 269 269 270 271 270 268 268 270 270 271 270 269 269 269 268 269 270
284 283 283 283 282 283 283 281 280 278 278 278 277 275 274 274 274 275 273 273 273 271 270 270 269 269 270 270 271 271 271 269 268 269 269 270 270 270 269 268 268 268 269
284 284 284 282 282 283 283 283 281 279 279 279 279 278 277 276 275 274 273 274 275 273 272 273 272 271 271 271 271 271 270 269 269 270 270 270 271 271 270 269 268 268 269
285 285 284 282 281 281 281 282 283 282 281 281 281 281 279 278 276 275 274 274 275 274 273 273 274 273 272 273 273 272 272 270 270 271 272 271 272 272 271 269 268 268 268
284 285 285 284 282 281 282 283 284 284 283 283 284 283 281 279 279 277 275 274 274 273 273 273 274 274 274 274 274 274 273 271 271 272 273 272 273 274 272 270 269 268 267
283 284 285 284 284 283 283 284 285 285 285 285 286 285 283 281 280 278 277 276 275 273 272 273 272 274 275 273 273 273 272 272 271 271 272 272 273 274 274 272 270 268 267
283 284 286 286 286 286 286 286 288 289 287 287 287 286 284 283 282 280 279 277 275 273 272 272 272 273 275 273 273 274 272 271 271 270 272 272 274 275 275 273 271 269 270
281 284 286 286 287 287 287 287 288 290 289 287 285 285 286 285 285 282 280 278 276 274 273 273 273 273 274 274 274 275 272 269 269 270 271 273 275 275 275 275 273 270 269
280 281 284 285 286 286 287 288 288 289 289 288 287 286 286 285 285 284 281 280 277 274 274 273 273 274 273 274 274 274 271 270 270 270 272 273 274 275 275 275 275 273 271
279 281 283 284 285 286 287 288 289 290 288 288 288 288 288 286 285 283 282 281 278 275 273 274 273 272 272 273 273 273 272 271 272 272 273 274 274 274 275 274 273 273 272
278 280 283 284 284 286 288 288 289 290 290 289 289 288 288 288 287 285 284 282 280 276 275 275 276 275 274 274 273 274 273 273 274 275 275 275 275 275 274 274 273 272 272
278 279 281 282 283 285 288 289 290 291 290 289 288 287 287 288 289 288 287 284 281 278 276 276 278 278 277 276 276 275 274 274 275 276 276 277 276 276 276 275 273 272 270
276 278 279 281 283 285 287 288 290 292 292 290 289 288 288 288 287 288 288 286 283 279 277 277 277 278 277 277 276 275 275 276 276 276 277 278 277 276 276 276 274 272 271
Height
5858 5858 5858 5858 5858 5858 5858 5857 5857 5857 5857 5857 5856 5856 5856 5856 5856 5856 5856 5856 5856 5856 5856 5856 5855 5855 5855 5855 5855 5855 5856 5856 5857 5857 5858 5858 5858 5859 5859 5859 5859 5859 5859
5857 5857 5857 5856 5856 5856 5856 5855 5855 5855 5855 5854 5854 5854 5854 5854 5854 5854 5854 5854 5854 5854 5853 5853 5852 5852 5852 5852 5852 5853 5853 5853 5853 5854 5854 5854 5855 5855 5855 5856 5856 5856 5855
5855 5855 5855 5854 5854 5854 5853 5853 5853 5852 5852 5852 5852 5852 5852 5852 5851 5851 5851 5851 5851 5851 5851 5850 5850 5849 5849 5849 5849 5850 5850 5850 5850 5850 5850 5851 5851 5851 5851 5852 5852 5852 5852
5853 5853 5852 5852 5851 5851 5850 5850 5850 5850 5849 5849 5849 5849 5849 5849 5849 5848 5848 5848 5848 5848 5847 5847 5847 5846 5846 5846 5846 5846 5846 5846 5846 5846 5846 5847 5847 5847 5847 5847 5847 5848 5848
5851 5850 5850 5849 5848 5848 5847 5847 5846 5846 5846 5846 5846 5846 5846 5846 5845 5845 5845 5844 5844 5844 5844 5843 5843 5843 5843 5843 5843 5842 5842 5842 5842 5842 5842 5842 5842 5843 5843 5843 5843 5843 5843
5848 5847 5847 5846 5845 5844 5844 5843 5843 5842 5842 5842 5842 5842 5842 5842 5842 5841 5841 5841 5841 5840 5840 5840 5840 5839 5839 5839 5839 5838 5838 5838 5838 5838 5838 5838 5838 5838 5838 5838 5838 5838 5839
5845 5844 5843 5842 5842 5841 5840 5840 5839 5839 5838 5838 5838 5838 5838 5838 5837 5837 5837 5837 5837 5837 5836 5836 5836 5835 5835 5835 5835 5834 5834 5834 5834 5833 5833 5833 5833 5833 5833 5833 5833 5834 5834
5841 5840 5839 5839 5838 5837 5837 5836 5835 5835 5834 5834 5834 5834 5834 5834 5833 5833 5833 5833 5833 5832 5832 5832 5832 5831 5831 5831 5830 5830 5830 5830 5829 5829 5829 5829 5829 5829 5829 5829 5829 5829 5829
5837 5836 5835 5835 5834 5833 5833 5832 5831 5831 5830 5830 5829 5829 5829 5829 5829 5829 5829 5828 5828 5828 5828 5828 5827 5827 5827 5827 5826 5826 5826 5825 5825 5825 5824 5824 5824 5824 5824 5823 5824 5824 5824
5833 5832 5831 5830 5829 5829 5828 5827 5827 5826 5826 5825 5825 5825 5825 5824 5824 5824 5824 5824 5824 5824 5824 5823 5823 5823 5822 5822 5822 5821 5821 5821 5820 5820 5820 5819 5819 5819 5819 5818 5818 5818 5818
5829 5828 5827 5826 5825 5824 5824 5823 5822 5822 5821 5821 5820 5820 5820 5819 5819 5820 5820 5819 5819 5819 5819 5818 5818 5818 5818 5817 5817 5817 5816 5816 5815 5815 5815 5814 5814 5814 5813 5813 5813 5813 5813
5825 5824 5823 5822 5821 5820 5819 5819 5818 5818 5817 5816 5816 5815 5815 5815 5814 5814 5814 5814 5814 5814 5814 5813 5813 5813 5813 5812 5812 5812 5811 5811 5810 5810 5810 5809 5809 5809 5808 5808 5808 5808 5807
5821 5820 5819 5818 5817 5816 5815 5814 5814 5813 5813 5812 5811 5811 5810 5810 5809 5809 5809 5808 5808 5808 5808 5808 5808 5808 5807 5807 5806 5806 5806 5805 5805 5805 5804 5804 5804 5803 5803 5803 5803 5802 5802
5817 5816 5815 5814 5813 5812 5811 5810 5809 5809 5808 5807 5807 5806 5806 5805 5805 5804 5804 5803 5803 5803 5802 5802 5802 5802 5802 5801 5801 5800 5800 5800 5799 5799 5799 5798 5798 5798 5798 5797 5797 5797 5797
5814 5812 5811 5810 5809 5808 5807 5806 5805 5804 5803 5803 5802 5801 5801 5800 5799 5799 5798 5798 5798 5797 5797 5796 5796 5796 5796 5795 5795 5794 5794 5794 5793 5793 5793 5793 5792 5792 5792 5792 5791 5791 5791
5810 5808 5807 5806 5804 5803 5802 5801 5800 5799 5799 5798 5797 5796 5795 5794 5794 5793 5793 5792 5792 5791 5791 5790 5790 5789 5789 5789 5789 5788 5788 5787 5787 5787 5787 5786 5786 5786 5786 5785 5785 5785 5785
5805 5804 5803 5801 5800 5799 5798 5797 5796 5795 5794 5793 5792 5790 5789 5789 5788 5787 5786 5786 5786 5785 5785 5784 5783 5783 5783 5782 5782 5782 5781 5781 5781 5781 5780 5780 5780 5779 5779 5779 5779 5778 5778
5801 5800 5798 5797 5796 5795 5793 5792 5791 5790 5789 5788 5786 5785 5784 5783 5782 5781 5780 5780 5779 5778 5778 5778 5777 5776 5776 5776 5775 5775 5775 5774 5774 5774 5773 5773 5773 5772 5772 5772 5771 5771 5771
5796 5795 5793 5792 5791 5790 5789 5787 5786 5785 5783 5782 5780 5779 5778 5777 5776 5775 5774 5773 5772 5771 5771 5771 5770 5770 5769 5769 5768 5768 5768 5767 5767 5767 5766 5766 5766 5765 5765 5764 5764 5764 5764
5791 5790 5788 5787 5786 5784 5783 5782 5780 5779 5777 5776 5774 5773 5771 5770 5769 5768 5767 5766 5765 5764 5764 5764 5763 5763 5763 5762 5761 5761 5760 5760 5760 5760 5759 5758 5758 5757 5757 5756 5756 5756 5756
5786 5785 5783 5782 5780 5779 5777 5776 5774 5773 5771 5769 5768 5766 5765 5763 5762 5761 5760 5759 5758 5757 5757 5756 5756 5755 5755 5754 5754 5753 5753 5752 5752 5752 5752 5751 5750 5750 5749 5748 5748 5747 5747
5780 5779 5778 5776 5775 5773 5772 5770 5768 5767 5765 5763 5761 5759 5758 5756 5755 5754 5752 5751 5750 5750 5749 5749 5749 5748 5747 5747 5746 5745 5745 5745 5745 5745 5744 5743 5742 5741 5740 5740 5739 5739 5738
5774 5773 5772 5771 5769 5768 5766 5764 5762 5760 5758 5756 5754 5752 5750 5749 5747 5746 5745 5744 5743 5742 5741 5741 5741 5740 5739 5739 5738 5738 5737 5736 5736 5736 5735 5734 5733 5732 5731 5730 5730 5729 5729
5768 5767 5766 5764 5763 5761 5759 5757 5755 5753 5751 5748 5746 5745 5743 5741 5740 5738 5737 5736 5735 5734 5733 5733 5732 5731 5731 5730 5730 5729 5728 5728 5728 5727 5726 5725 5724 5723 5722 5721 5720 5720 5720
5761 5760 5759 5758 5756 5754 5753 5751 5748 5746 5744 5741 5739 5738 5736 5735 5733 5731 5730 5728 5727 5726 5725 5724 5724 5723 5722 5721 5721 5720 5720 5720 5719 5718 5717 5716 5715 5713 5712 5711 5710 5710 5710
5754 5753 5752 5751 5749 5747 5746 5744 5741 5739 5736 5734 5732 5730 5729 5727 5726 5724 5722 5721 5719 5718 5717 5716 5715 5714 5714 5713 5712 5711 5711 5710 5710 5709 5708 5706 5705 5704 5703 5702 5700 5700 5700